| time (UTC) | temp C | wind direction | speed KPH | gust KPH | rain 1hr cm | rain 24hr cm | rain mn cm | humidity % | barometer mb |
| 20260503011610 | 25 | 198 | 0.0 | 1.6 | 0.00 | 0.00 | 0.00 | 33 | 1014.3 |
| 20260503010112 | 25 | 249 | 0.0 | 1.6 | 0.00 | 0.00 | 0.00 | 37 | 1014.4 |
| 20260503004603 | 24 | 331 | 0.0 | 6.4 | 0.00 | 0.00 | 0.00 | 35 | 1014.4 |
| 20260503003105 | 24 | 304 | 0.0 | 1.6 | 0.00 | 0.00 | 0.00 | 38 | 1014.4 |
| 20260503001501 | 23 | 297 | 0.0 | 8.0 | 0.00 | 0.00 | 0.00 | 41 | 1014.6 |
| 20260503000108 | 23 | 242 | 1.6 | 8.0 | 0.00 | 0.00 | 0.00 | 38 | 1014.6 |
| 20260502234555 | 23 | 324 | 0.0 | 6.4 | 0.00 | 0.00 | 0.00 | 43 | 1014.8 |
| 20260502233053 | 23 | 316 | 1.6 | 6.4 | 0.00 | 0.00 | 0.00 | 38 | 1015.0 |
| 20260502231558 | 23 | 237 | 0.0 | 6.4 | 0.00 | 0.00 | 0.00 | 39 | 1015.1 |
| 20260502230059 | 23 | 227 | 1.6 | 9.7 | 0.00 | 0.00 | 0.00 | 41 | 1015.4 |
| 20260502224544 | 22 | 143 | 4.8 | 9.7 | 0.00 | 0.00 | 0.00 | 43 | 1015.7 |
| 20260502223047 | 22 | 236 | 0.0 | 6.4 | 0.00 | 0.00 | 0.00 | 43 | 1016.0 |
| 20260502221549 | 22 | 236 | 0.0 | 6.4 | 0.00 | 0.00 | 0.00 | 49 | 1016.3 |
| 20260502220146 | 22 | 236 | 1.6 | 9.7 | 0.00 | 0.00 | 0.00 | 46 | 1016.5 |
| 20260502214547 | 22 | 236 | 3.2 | 9.7 | 0.00 | 0.00 | 0.00 | 46 | 1016.6 |
| 20260502213053 | 22 | 314 | 1.6 | 9.7 | 0.00 | 0.00 | 0.00 | 51 | 1016.8 |
| 20260502211555 | 21 | 330 | 4.8 | 12.9 | 0.00 | 0.00 | 0.00 | 52 | 1016.9 |
| 20260502210104 | 21 | 350 | 3.2 | 8.0 | 0.00 | 0.00 | 0.00 | 53 | 1017.0 |
| 20260502204548 | 20 | 210 | 4.8 | 12.9 | 0.00 | 0.00 | 0.00 | 57 | 1017.1 |
| 20260502203100 | 20 | 238 | 1.6 | 12.9 | 0.00 | 0.00 | 0.00 | 55 | 1017.2 |
| 20260502201550 | 21 | 209 | 6.4 | 14.5 | 0.00 | 0.00 | 0.00 | 53 | 1017.5 |
| 20260502200053 | 20 | 317 | 1.6 | 9.7 | 0.00 | 0.00 | 0.00 | 57 | 1017.6 |
| 20260502194541 | 20 | 240 | 3.2 | 9.7 | 0.00 | 0.00 | 0.00 | 60 | 1017.8 |
| 20260502193038 | 20 | 245 | 3.2 | 11.3 | 0.00 | 0.00 | 0.00 | 58 | 1017.9 |
| 20260502191543 | 19 | 229 | 4.8 | 9.7 | 0.00 | 0.00 | 0.00 | 61 | 1018.0 |
| 20260502190049 | 18 | 253 | 1.6 | 8.0 | 0.00 | 0.00 | 0.00 | 61 | 1018.1 |
| 20260502184536 | 19 | 236 | 3.2 | 8.0 | 0.00 | 0.00 | 0.00 | 60 | 1018.1 |
| 20260502183050 | 18 | 214 | 4.8 | 11.3 | 0.00 | 0.00 | 0.00 | 59 | 1018.2 |
| 20260502181556 | 18 | 224 | 3.2 | 8.0 | 0.00 | 0.00 | 0.00 | 64 | 1018.3 |
| 20260502180115 | 18 | 230 | 0.0 | 8.0 | 0.00 | 0.00 | 0.00 | 64 | 1018.4 |
| 20260502163059 | 13 | 209 | 1.6 | 6.4 | 0.00 | 0.00 | 0.00 | 91 | 1018.6 |
| 20260502161547 | 13 | 207 | 0.0 | 3.2 | 0.00 | 0.00 | 0.00 | 91 | 1018.5 |
| 20260502160104 | 12 | 257 | 0.0 | 4.8 | 0.00 | 0.00 | 0.00 | 92 | 1018.6 |
| 20260502151556 | 10 | 195 | 0.0 | 0.0 | 0.00 | 0.00 | 0.00 | 92 | 1018.4 |
| 20260502140110 | 8 | 240 | 0.0 | 1.6 | 0.00 | 0.00 | 0.00 | 92 | 1017.9 |
| 20260502123013 | 8 | 186 | 0.0 | 0.0 | 0.00 | 0.00 | 0.00 | 92 | 1017.7 |
| 20260502121519 | 8 | 186 | 0.0 | 4.8 | 0.00 | 0.00 | 0.00 | 92 | 1017.6 |
| 20260502120124 | 8 | 248 | 0.0 | 3.2 | 0.00 | 0.00 | 0.00 | 92 | 1017.5 |
| 20260502114512 | 8 | 248 | 0.0 | 1.6 | 0.00 | 0.00 | 0.00 | 92 | 1017.4 |
| 20260502113016 | 8 | 248 | 0.0 | 4.8 | 0.00 | 0.00 | 0.00 | 92 | 1017.2 |
| 20260502111519 | 8 | 211 | 0.0 | 1.6 | 0.00 | 0.00 | 0.00 | 92 | 1017.4 |
| 20260502110007 | 8 | 211 | 0.0 | 4.8 | 0.00 | 0.00 | 0.00 | 92 | 1017.1 |
| 20260502104509 | 8 | 198 | 1.6 | 4.8 | 0.00 | 0.00 | 0.00 | 92 | 1017.1 |
| 20260502103014 | 8 | 223 | 0.0 | 3.2 | 0.00 | 0.00 | 0.00 | 92 | 1017.1 |
| 20260502101515 | 8 | 211 | 1.6 | 8.0 | 0.00 | 0.00 | 0.00 | 92 | 1017.2 |
| 20260502100122 | 8 | 209 | 3.2 | 9.7 | 0.00 | 0.00 | 0.00 | 92 | 1017.2 |
| 20260502091517 | 8 | 229 | 4.8 | 11.3 | 0.00 | 0.00 | 0.00 | 92 | 1017.0 |
| 20260502090121 | 8 | 201 | 3.2 | 8.0 | 0.00 | 0.00 | 0.00 | 92 | 1017.0 |
| 20260502071510 | 9 | 195 | 0.0 | 1.6 | 0.00 | 0.00 | 0.00 | 90 | 1017.0 |
| 20260502070118 | 10 | 196 | 0.0 | 4.8 | 0.00 | 0.00 | 0.00 | 90 | 1016.9 |
| 20260502064501 | 10 | 217 | 1.6 | 11.3 | 0.00 | 0.00 | 0.00 | 90 | 1016.9 |
| 20260502063004 | 10 | 188 | 3.2 | 12.9 | 0.00 | 0.00 | 0.00 | 89 | 1017.0 |
| 20260502061508 | 10 | 243 | 3.2 | 9.7 | 0.00 | 0.00 | 0.00 | 89 | 1017.0 |
| 20260502060116 | 10 | 239 | 4.8 | 16.1 | 0.00 | 0.00 | 0.00 | 88 | 1016.7 |
| 20260502054600 | 10 | 195 | 6.4 | 12.9 | 0.00 | 0.00 | 0.00 | 88 | 1016.7 |
| 20260502053108 | 10 | 224 | 1.6 | 9.7 | 0.00 | 0.00 | 0.00 | 88 | 1016.8 |
| 20260502051505 | 10 | 229 | 1.6 | 4.8 | 0.00 | 0.00 | 0.00 | 88 | 1016.7 |
| 20260502050112 | 10 | 227 | 3.2 | 6.4 | 0.00 | 0.00 | 0.00 | 88 | 1016.5 |
| 20260502044558 | 10 | 226 | 1.6 | 4.8 | 0.00 | 0.00 | 0.00 | 88 | 1016.5 |
| 20260502043108 | 11 | 227 | 1.6 | 6.4 | 0.00 | 0.00 | 0.00 | 87 | 1016.5 |
| 20260502041604 | 11 | 209 | 1.6 | 6.4 | 0.00 | 0.00 | 0.00 | 86 | 1016.3 |
| 20260502040107 | 11 | 198 | 3.2 | 9.7 | 0.00 | 0.00 | 0.00 | 85 | 1016.1 |
| 20260502034553 | 11 | 216 | 3.2 | 9.7 | 0.00 | 0.00 | 0.00 | 85 | 1016.1 |
| 20260502033057 | 11 | 227 | 1.6 | 4.8 | 0.00 | 0.00 | 0.00 | 84 | 1016.0 |
| 20260502031602 | 12 | 195 | 4.8 | 11.3 | 0.00 | 0.00 | 0.00 | 82 | 1015.9 |
| 20260502030108 | 13 | 239 | 4.8 | 16.1 | 0.00 | 0.00 | 0.00 | 77 | 1015.6 |
| 20260502024551 | 13 | 205 | 4.8 | 19.3 | 0.00 | 0.00 | 0.00 | 75 | 1015.6 |
| 20260502023056 | 13 | 221 | 3.2 | 11.3 | 0.00 | 0.00 | 0.00 | 77 | 1015.5 |
| 20260502021607 | 13 | 236 | 3.2 | 11.3 | 0.00 | 0.00 | 0.00 | 78 | 1015.6 |
| 20260502020111 | 13 | 194 | 4.8 | 14.5 | 0.00 | 0.00 | 0.00 | 82 | 1015.6 |
| 20260502014601 | 12 | 221 | 3.2 | 14.5 | 0.00 | 0.00 | 0.00 | 85 | 1015.6 |
| 20260502013103 | 12 | 242 | 3.2 | 8.0 | 0.00 | 0.00 | 0.00 | 85 | 1015.8 |